Location: Newark
(48.3453°N, 0.5589°E)
Time: 15:49:24
(UTC+00:00)

A-11 Canister half - Pass Details

Date: 10 December 2019
Orbit: 1516 x 1683 km, 47.2° (Epoch: 18 January)

Event Time Altitude Azimuth Distance (km) Brightness Sun altitude
Rises 12:03:58 0° 226° (SW) 4,733 12.3 18.7°
Reaches altitude 10° 12:07:04 10° 222° (SW) 3,773 12.0 18.6°
Maximum altitude 12:16:18 54° 149° (SSE) 1,908 10.3 18.5°
Drops below altitude 10° 12:25:52 10° 76° (ENE) 3,908 11.0 18.3°
Sets 12:29:09 0° 72° (ENE) 4,913 11.4 18.2°
